GFSCGP_700_rhum_102.txt.gz
RH
72 61 60 52 47 44 42 36 34 35 36 38 34 29 27 33 37 38 37 24 14 12 14 17 18 16 14 12 12 15 16 16 21 27 25 20 19 22 36 62 67 37 33 36
84 80 63 53 51 47 45 40 36 34 33 30 31 33 35 36 35 35 37 21 22 22 23 25 28 29 31 29 19 14 17 24 27 22 29 30 29 25 22 25 41 59 43 41
86 75 56 56 56 53 46 38 34 29 36 44 42 36 32 34 32 19 19 22 27 38 38 31 24 20 21 26 30 26 28 25 26 29 25 29 29 29 29 25 24 42 48 44
89 66 43 66 57 48 40 37 35 39 44 32 40 22 29 30 42 24 28 32 43 43 31 27 24 22 24 25 29 41 37 33 35 36 27 25 27 28 30 30 29 25 48 44
76 82 93 92 57 48 42 44 50 45 47 42 37 35 21 32 40 58 68 41 45 32 30 32 31 28 46 38 40 44 50 47 40 38 25 24 25 26 25 27 31 29 32 43
98 98 91 73 71 66 54 56 54 53 46 42 33 31 21 32 36 56 82 45 42 37 36 36 37 43 52 62 61 53 60 58 61 43 25 24 22 23 25 27 33 31 25 36
96 93 70 63 64 58 80 52 51 52 48 36 28 28 22 36 59 73 73 49 46 39 42 35 39 51 51 60 60 61 66 54 54 41 25 28 20 22 23 27 31 37 30 39
71 65 57 55 53 51 64 47 50 52 35 26 42 31 46 64 51 48 50 54 54 46 46 39 28 47 51 55 62 72 69 51 52 48 36 29 23 21 23 27 34 36 33 31
55 59 52 52 48 50 50 49 39 39 40 36 29 40 89 97 58 59 60 65 62 58 46 32 27 37 47 50 63 76 72 67 54 41 36 33 29 24 27 29 42 40 31 31
58 60 64 58 58 55 61 50 55 50 46 40 24 26 33 99 95 85 79 64 57 48 38 34 34 43 46 42 55 75 89 59 61 44 45 41 39 34 34 45 50 48 35 33
58 51 58 52 51 45 48 56 63 65 57 44 38 35 61 94 72 68 64 60 56 49 42 37 38 47 48 54 69 81 79 73 65 53 57 51 48 46 48 53 55 55 48 41
54 38 39 48 36 37 42 58 55 44 39 52 65 45 69 63 69 78 72 61 52 51 47 39 22 39 43 59 73 69 86 72 79 69 68 67 61 54 62 63 64 58 58 53
56 51 52 48 51 31 48 37 30 32 37 43 42 39 56 67 73 49 36 12 14 18 26 22 38 56 51 55 63 69 78 100 99 81 86 82 81 78 73 72 85 72 72 66
42 30 34 27 40 54 60 62 57 46 61 38 37 28 58 48 34 53 73 34 14 12 33 58 90 72 69 62 58 68 89 95 98 100 98 97 92 93 99 89 100 99 97 82
35 42 25 38 24 34 55 56 51 45 36 38 24 25 28 52 85 87 54 48 21 21 82 96 96 80 74 76 66 71 97 98 96 99 99 98 100 93 100 99 99 100 98 94
38 44 27 45 53 57 51 45 44 45 41 36 37 44 79 87 89 79 83 62 39 36 95 97 93 91 88 81 76 78 95 98 100 99 98 97 98 100 99 100 95 94 96 95
33 22 30 30 52 50 36 47 43 40 47 71 76 87 77 83 99 95 95 83 56 76 98 97 92 90 91 84 76 82 93 98 98 99 95 100 99 100 100 92 99 100 99 97
15 26 45 42 56 55 96 66 78 72 77 71 78 81 80 87 100 95 96 89 90 98 96 94 86 98 91 84 84 89 97 98 99 100 100 98 99 99 99 100 99 99 100 100
51 78 85 76 62 62 95 86 81 80 92 80 87 93 89 94 99 98 97 99 98 96 96 96 98 99 96 93 93 92 98 100 98 98 98 99 100 99 96 98 98 99 100 100
89 95 91 84 72 62 99 93 87 90 100 92 95 93 98 98 97 97 96 96 96 95 97 97 97 97 98 97 94 96 98 97 91 95 96 97 97 98 100 100 100 99 99 100
100 100 92 82 76 91 81 87 92 98 97 87 88 91 97 97 96 96 96 95 96 96 96 96 97 97 97 96 95 97 98 90 84 85 87 89 89 94 98 98 98 99 99 99
98 94 90 85 87 90 89 88 95 90 91 93 95 96 97 96 96 96 96 95 96 96 96 96 97 98 97 96 94 94 90 89 90 90 89 85 83 84 85 89 95 96 98 98
99 86 100 95 96 90 90 92 94 95 95 95 95 96 96 96 95 95 96 96 96 96 97 98 94 92 94 91 90 92 88 88 89 93 91 89 88 86 87 88 85 86 91 95
87 86 87 89 91 90 92 93 94 95 95 95 95 95 95 95 95 96 96 96 97 93 91 88 87 87 84 82 82 82 83 83 83 82 86 89 90 88 88 86 87 87 87 86
87 83 85 88 92 91 94 95 94 95 95 96 95 95 96 96 97 97 97 95 93 92 87 83 82 77 75 72 73 74 75 76 79 78 78 79 80 82 84 87 87 86 87 86
50 62 84 100 87 92 94 95 95 95 96 96 97 93 88 83 85 84 83 81 80 76 75 76 76 74 72 68 65 64 64 64 64 66 66 66 68 74 76 77 78 83 87 88

GFSCGP_700_rhum_105.txt.gz
RH
72 79 70 64 63 59 55 55 53 35 31 34 33 31 28 29 28 25 29 34 35 45 70 81 33 14 13 12 10 8 8 8 9 10 14 19 22 23 28 34 46 59 71 67
70 86 57 65 64 72 69 53 53 52 41 34 33 30 26 24 24 28 30 32 44 68 72 78 26 25 21 19 15 13 10 8 9 6 6 8 9 14 21 28 23 24 42 60
53 61 76 78 86 97 92 78 54 66 65 41 32 28 28 28 29 30 32 38 66 75 83 38 32 26 20 17 14 12 13 17 21 22 15 12 18 21 27 30 24 21 24 28
66 61 74 87 85 78 97 81 62 73 52 36 31 31 27 26 30 33 46 68 71 88 40 28 19 20 22 19 16 19 22 27 33 37 29 28 31 29 27 28 81 24 26 38
76 80 82 79 84 83 95 82 85 79 49 37 37 34 27 26 29 41 55 66 88 64 32 28 32 24 28 29 31 34 35 35 39 42 43 44 41 34 33 31 62 39 28 29
90 98 94 81 83 96 93 95 79 68 52 49 56 40 29 29 27 39 60 84 97 42 36 34 37 28 23 36 40 38 38 47 46 51 57 54 49 39 32 28 35 40 32 31
99 98 91 95 99 99 96 97 85 80 73 62 36 36 38 35 29 42 84 94 83 50 44 45 39 27 21 24 32 37 38 50 54 66 54 54 49 44 36 25 27 55 40 29
99 94 100 73 70 94 92 94 69 75 66 51 41 42 68 69 71 92 94 53 62 60 52 49 40 30 21 31 42 40 42 52 58 74 63 42 41 25 21 25 25 40 46 26
71 58 57 61 66 71 96 87 60 58 55 46 64 67 78 78 58 53 78 93 78 63 54 45 39 32 25 25 48 37 37 51 75 69 64 50 42 42 36 34 23 37 38 33
87 73 54 54 54 55 63 68 54 64 68 46 36 44 55 100 93 91 94 86 67 56 51 48 46 41 34 10 37 43 49 55 68 64 61 46 43 40 38 48 32 36 38 42
75 67 68 56 50 49 50 89 74 89 65 54 48 60 99 98 95 90 97 71 62 60 57 54 51 43 17 6 31 40 50 55 63 71 72 56 51 50 65 73 64 46 58 53
78 78 65 49 67 62 54 45 69 86 56 82 49 60 99 94 94 83 63 62 62 52 32 24 15 6 7 31 46 50 44 52 56 71 71 72 64 57 56 60 54 53 50 62
76 73 50 47 53 50 43 43 49 52 54 37 43 53 94 64 73 48 42 78 36 16 14 12 9 10 46 66 63 56 39 56 61 78 96 90 79 71 68 62 65 68 73 68
69 57 51 47 48 46 50 43 44 48 52 34 30 24 61 37 36 61 85 84 64 39 31 14 16 69 86 84 76 57 54 68 71 81 82 88 95 92 83 83 81 75 69 62
81 65 49 41 44 42 45 45 45 40 39 34 26 23 23 59 84 93 69 69 62 58 34 17 61 88 86 83 81 76 74 76 78 90 94 87 99 100 98 99 100 96 84 94
43 53 56 43 44 41 36 32 30 31 30 30 28 26 85 99 99 92 58 78 72 72 47 55 86 88 89 86 85 81 82 85 90 93 98 99 100 98 100 98 100 96 99 100
58 67 46 28 41 35 26 35 32 29 26 35 42 78 99 71 55 52 85 88 82 76 59 85 99 87 85 92 88 89 89 89 90 96 98 100 99 100 99 100 100 92 100 99
59 56 45 32 41 34 85 97 82 74 82 84 81 77 59 58 70 86 94 97 96 80 89 97 95 88 96 98 98 95 95 91 93 96 97 98 100 99 98 99 100 100 86 96
48 50 58 60 40 56 78 98 64 55 95 71 75 81 85 79 86 84 84 92 94 96 96 96 96 96 96 98 96 98 93 91 94 97 97 97 97 98 99 98 97 83 90 99
72 78 72 61 58 51 97 96 89 60 91 88 81 82 82 88 95 90 89 94 96 96 96 97 96 96 96 96 98 99 95 92 86 90 96 96 96 97 97 98 97 99 99 98
86 88 75 62 57 91 75 68 67 94 98 88 83 82 84 100 92 93 96 96 96 96 96 96 95 96 96 97 99 98 95 87 82 86 88 92 88 82 87 96 98 97 97 98
81 72 69 58 72 87 76 83 86 92 86 90 91 92 96 98 95 97 96 96 95 95 95 96 96 96 96 97 96 93 88 83 84 85 84 83 82 82 81 82 84 95 97 97
96 88 98 90 94 76 74 80 85 89 89 94 92 94 93 96 96 96 95 95 95 95 96 96 98 96 95 92 90 90 85 85 85 84 82 79 80 81 80 80 78 79 79 84
81 71 80 74 71 76 78 84 88 89 88 90 94 95 94 95 95 95 95 96 96 97 99 95 92 90 87 83 78 73 72 72 73 73 74 73 74 74 75 76 78 77 77 77
100 98 94 84 79 79 80 84 87 86 90 93 93 93 94 96 97 98 99 97 93 89 85 80 78 75 72 68 64 62 60 58 58 56 56 56 56 57 60 63 66 68 74 76
100 97 100 99 76 76 78 85 87 88 92 94 91 87 83 81 80 79 80 81 83 83 81 77 74 71 69 65 60 58 56 53 50 50 49 48 48 48 49 50 54 55 58 63

GFSCGP_700_rhum_108.txt.gz
RH
70 70 66 53 49 54 51 50 52 50 48 52 52 60 35 32 32 29 30 29 28 30 37 62 80 70 37 15 13 12 11 10 9 10 12 17 20 22 25 26 26 32 50 68
61 52 46 50 52 56 62 67 68 72 62 55 54 63 57 33 30 29 29 25 30 33 49 72 92 53 22 21 14 13 11 10 10 8 6 4 4 5 11 17 22 25 24 40
61 52 47 50 62 62 57 58 70 73 71 68 68 76 50 40 31 27 27 25 31 39 63 83 85 54 33 23 18 14 11 9 8 7 8 7 9 10 7 5 7 10 15 20
66 58 55 48 57 61 62 67 72 80 86 92 81 85 54 43 33 27 26 28 44 62 81 91 72 33 27 21 19 18 18 16 13 16 20 20 20 24 25 20 18 16 23 27
62 65 70 64 55 52 76 93 98 98 98 95 76 80 58 41 41 40 34 47 67 84 87 66 41 34 28 21 18 19 22 23 22 20 22 22 26 28 31 34 36 33 29 49
86 82 88 96 90 78 94 96 90 98 98 96 71 68 71 63 46 39 43 67 93 96 61 54 34 35 30 19 14 13 13 20 26 30 33 34 36 38 37 38 43 44 35 39
83 85 88 82 92 81 97 90 94 94 94 69 51 66 79 70 70 39 72 99 99 58 32 49 40 37 33 27 23 13 19 30 34 36 42 48 55 54 34 29 34 43 37 55
72 70 83 92 92 81 88 78 80 90 85 57 60 94 92 96 82 78 85 99 100 34 37 49 46 41 37 34 31 26 10 39 39 37 49 67 68 56 35 37 32 29 38 48
67 65 79 84 83 87 94 97 52 82 87 96 82 80 78 99 96 99 98 98 97 44 54 55 49 42 40 41 38 32 4 33 42 43 47 65 67 55 45 40 43 36 24 25
96 71 71 82 81 74 69 81 98 98 88 87 48 65 91 98 87 99 98 98 90 75 57 54 51 47 46 45 36 7 4 20 39 42 47 53 67 58 50 50 46 38 45 34
90 70 76 85 68 48 61 57 97 97 69 78 60 96 99 99 99 98 95 69 56 62 63 60 57 52 42 37 7 4 18 36 41 40 49 46 64 69 56 63 65 66 57 50
81 73 70 64 52 53 54 60 89 98 94 97 93 83 96 94 89 85 55 55 54 56 57 43 33 21 10 6 6 21 56 53 42 41 46 45 50 66 69 70 69 74 69 85
81 80 62 79 70 54 52 58 50 66 57 50 50 52 71 87 79 72 76 90 56 45 33 23 17 12 15 10 31 65 68 61 47 49 49 57 66 78 80 77 75 74 78 90
81 68 64 67 72 55 49 44 43 43 55 44 38 50 79 60 52 82 86 69 57 39 39 30 27 25 16 41 74 73 72 67 66 66 62 62 78 86 79 92 91 76 73 77
81 73 60 60 42 41 47 38 37 37 37 41 40 29 56 71 92 82 54 48 53 42 45 40 36 27 30 74 76 80 80 79 76 78 78 85 92 88 94 92 90 99 87 87
93 90 77 62 46 41 36 30 30 34 34 28 26 29 80 76 57 57 53 54 42 62 46 51 53 44 88 78 76 89 89 87 84 85 84 93 99 96 98 98 97 99 94 92
86 72 61 47 45 37 30 35 28 28 26 38 33 77 100 74 60 50 42 42 63 74 77 61 74 94 87 86 94 96 92 88 93 95 95 95 98 98 100 96 98 100 100 99
73 64 53 39 41 34 77 68 64 56 82 71 76 88 71 54 47 60 70 78 81 84 86 94 97 97 96 99 97 97 96 94 99 100 100 98 94 97 98 98 98 99 99 100
57 56 47 46 39 67 76 88 53 45 80 50 55 53 61 62 68 77 83 80 83 83 90 96 97 97 96 96 96 97 98 97 95 98 97 94 96 97 96 97 98 98 97 98
52 55 65 58 55 49 98 97 91 43 94 74 77 76 79 81 94 88 88 88 92 96 97 96 97 96 96 96 96 96 98 96 92 91 91 95 96 96 96 96 96 96 97 96
73 74 70 62 52 90 93 99 64 80 91 84 81 76 77 83 93 96 90 90 96 97 97 96 96 96 96 95 96 96 95 88 82 81 84 86 83 81 88 93 91 95 96 98
68 68 67 64 55 75 77 76 77 79 78 79 82 84 84 96 98 96 89 94 96 96 96 95 95 95 96 96 96 95 86 81 79 80 82 82 79 77 77 77 77 83 89 94
92 88 91 81 83 81 69 64 67 74 81 85 88 88 87 90 88 87 94 96 96 95 95 95 95 96 95 90 84 79 72 68 66 68 67 64 64 63 65 68 70 74 74 71
75 76 74 73 68 65 63 68 75 81 80 82 88 90 89 92 94 96 96 95 95 95 96 94 87 82 79 72 68 65 62 58 58 56 56 55 54 53 53 54 55 57 56 60
93 92 78 64 73 65 67 76 80 80 80 79 86 90 91 93 94 92 93 95 96 91 84 81 77 74 69 64 60 53 46 38 31 25 22 19 17 18 19 17 20 24 31 38
92 95 85 94 68 66 72 77 80 81 83 85 85 86 83 82 87 89 90 87 80 70 65 66 66 63 55 39 23 17 15 14 12 11 10 9 8 8 8 8 8 9 9 10

GFSCGP_700_rhum_114.txt.gz
RH
20 44 39 10 20 32 45 50 50 50 54 52 52 48 37 32 45 34 24 31 38 49 44 39 32 30 31 32 33 34 34 35 35 23 22 20 22 24 25 25 25 28 30 32
30 29 20 36 46 54 61 63 58 50 51 56 57 52 43 26 31 26 21 26 50 76 55 41 35 32 33 33 35 37 37 37 40 19 14 12 11 11 13 16 19 21 22 24
31 35 50 61 66 67 65 62 57 54 54 58 64 59 32 31 25 26 28 32 66 77 84 54 43 35 34 40 49 52 40 43 36 14 12 10 8 7 7 7 7 7 8 11
70 74 61 54 65 66 68 65 63 61 64 72 82 80 19 37 29 40 45 50 55 93 97 80 64 40 56 75 70 60 48 29 17 17 17 17 16 13 12 8 6 5 6 5
47 62 70 72 70 71 70 67 65 67 68 68 68 86 40 42 40 55 66 71 80 81 94 92 62 50 80 71 59 35 25 21 18 15 12 11 11 11 11 10 8 6 7 9
73 69 70 74 79 75 70 72 73 73 77 95 61 67 58 58 71 82 94 98 94 88 94 91 72 83 71 60 45 30 35 32 18 19 17 14 14 6 7 7 8 10 10 13
56 55 64 76 83 84 86 88 87 83 90 87 62 71 64 97 81 76 87 82 98 99 99 99 90 79 50 40 53 48 60 30 23 19 16 16 14 13 6 5 6 11 20 29
68 65 57 60 61 73 79 79 81 90 93 89 71 71 97 100 98 97 99 99 84 97 99 99 96 59 59 71 59 39 34 25 16 9 6 4 3 4 4 5 6 14 18 27
76 73 63 55 62 69 92 86 80 93 86 89 64 78 100 97 94 96 97 97 98 96 98 98 96 95 79 49 45 45 36 25 12 4 2 2 1 2 2 11 13 17 21 28
74 76 69 69 71 80 84 81 95 93 96 96 69 97 96 94 96 94 96 95 95 98 97 97 98 88 57 45 45 35 23 11 6 3 2 2 1 3 9 14 19 21 23 30
80 82 80 72 79 74 83 95 88 88 88 97 95 97 96 96 94 98 99 94 96 95 80 60 49 43 36 14 5 4 4 5 3 2 3 3 4 15 26 25 23 22 29 30
74 94 100 85 71 69 76 72 74 90 89 100 93 96 99 89 100 96 85 82 63 54 54 35 26 16 9 6 6 6 9 10 8 8 11 26 32 28 28 29 30 29 36 40
72 99 97 96 84 74 81 78 72 78 89 94 88 88 92 98 97 95 84 72 51 44 38 34 29 20 15 20 18 18 18 18 17 33 53 51 47 41 41 38 38 42 49 54
78 95 96 88 75 69 73 73 67 71 96 75 67 76 99 99 89 87 88 82 67 56 42 38 30 22 27 32 29 26 27 26 42 62 64 68 68 65 59 56 49 52 58 67
89 90 93 95 80 65 61 47 54 69 80 70 62 62 100 97 87 92 85 81 67 56 44 31 30 37 41 37 38 34 39 64 81 80 78 79 79 78 78 74 68 69 76 77
93 93 93 94 90 68 43 56 37 52 53 51 44 70 92 97 99 100 88 74 61 45 32 34 48 54 54 52 63 77 88 94 90 85 86 88 89 92 93 91 96 100 100 93
91 91 99 94 96 96 67 42 48 36 34 44 45 36 40 64 79 80 79 64 42 42 50 59 65 67 74 82 89 96 99 98 96 94 93 94 96 96 94 97 100 98 92 94
85 87 97 92 96 95 77 55 43 40 42 41 43 40 52 64 79 82 60 48 46 63 70 74 76 79 84 89 95 99 100 99 96 96 96 96 95 96 97 96 96 96 96 96
93 94 95 89 78 80 87 76 59 51 54 50 50 57 63 72 71 57 55 63 72 75 76 82 88 94 99 100 100 100 98 96 95 96 95 96 94 93 92 83 87 89 94 96
97 95 88 69 57 88 80 71 65 56 45 41 38 39 37 40 58 72 73 78 79 78 82 88 93 96 95 96 95 96 96 96 96 93 80 73 68 64 55 49 47 52 64 69
93 94 71 57 58 74 75 68 75 69 60 47 52 64 69 72 74 76 85 84 80 86 87 86 89 93 95 94 95 96 93 82 64 56 54 49 39 30 23 23 26 21 26 35
83 57 56 57 70 86 74 76 81 59 54 56 65 75 75 75 79 89 91 87 88 87 86 84 88 92 94 94 83 74 65 50 39 25 16 12 10 10 9 9 9 9 9 9
58 55 54 57 61 66 68 70 68 54 53 63 71 73 77 78 87 92 92 90 90 92 88 90 94 88 71 64 58 49 26 14 12 10 10 9 10 10 11 12 12 12 12 12
66 61 75 63 59 72 69 68 59 55 65 66 70 72 76 81 85 90 91 91 93 95 94 82 70 63 57 41 20 14 11 11 11 12 14 15 16 16 16 16 16 15 15 14
73 72 70 71 75 72 67 58 55 66 66 70 72 81 85 84 87 87 89 94 91 84 74 64 59 46 24 16 13 12 13 14 16 18 18 18 18 18 18 17 16 16 15 13
78 72 68 66 63 64 53 54 64 70 70 74 79 82 85 86 89 86 88 84 74 69 67 55 29 18 14 13 14 16 17 19 21 21 21 21 20 19 17 15 13 12 10 9

GFSCGP_700_rhum_117.txt.gz
RH
12 18 12 7 16 28 38 39 50 52 45 49 39 30 22 42 33 25 18 25 29 19 14 26 30 46 47 48 44 37 32 32 34 34 35 34 36 28 29 24 23 27 30 31
23 23 18 26 40 50 42 50 52 64 59 63 57 39 26 40 35 25 26 31 36 38 35 30 57 52 72 62 58 47 37 35 35 34 34 36 37 23 18 19 20 21 22 23
24 35 25 39 45 46 47 63 65 70 69 66 63 42 21 35 43 37 36 38 51 53 64 59 80 66 85 91 78 63 49 42 37 35 37 39 35 14 12 11 11 11 11 12
66 47 32 55 64 62 73 68 73 71 68 72 78 74 41 54 51 50 58 60 56 57 86 91 100 99 93 98 80 68 54 47 42 43 40 39 31 13 14 12 11 11 10 8
37 42 54 48 37 65 72 73 74 72 72 74 75 79 40 58 62 67 92 91 85 83 100 100 99 94 100 82 98 85 71 61 51 41 36 30 17 14 11 9 9 10 13 14
61 62 66 70 74 76 76 78 80 82 80 89 63 69 67 99 99 83 100 100 95 85 100 99 100 100 100 98 83 85 52 51 30 40 48 48 22 14 15 12 8 6 5 8
47 57 58 73 84 89 87 81 97 93 98 89 77 74 95 100 87 70 99 100 99 99 99 99 99 99 99 98 90 43 47 39 54 54 44 32 17 11 8 8 8 7 6 5
58 64 54 53 58 71 86 94 81 91 91 86 74 68 95 99 96 99 100 98 96 96 97 96 96 96 97 89 68 56 67 54 40 28 25 15 8 5 5 4 3 3 4 3
68 73 69 62 61 68 92 99 86 82 95 95 68 97 99 98 96 94 93 93 87 92 96 97 94 96 97 97 91 67 50 46 38 31 16 9 8 6 4 4 2 2 2 2
65 72 70 67 75 78 84 80 89 97 91 92 74 89 90 94 97 98 98 97 97 93 91 87 84 75 82 89 40 28 19 10 6 5 4 4 4 5 4 3 3 2 4 6
69 75 77 80 78 74 83 90 83 75 79 92 95 82 81 79 79 92 91 82 87 75 78 85 88 83 40 14 32 70 53 10 4 4 4 4 4 4 4 4 2 3 6 11
62 79 87 87 81 82 81 72 71 76 96 99 92 81 80 71 63 82 72 60 50 50 54 49 39 32 26 14 10 12 12 12 13 12 10 9 10 18 19 22 18 14 19 17
67 75 96 85 83 90 98 98 90 76 74 90 93 80 83 84 82 75 76 70 65 60 61 50 41 34 23 18 15 17 21 25 21 17 22 31 39 42 40 44 37 34 30 25
72 76 78 74 61 83 87 90 91 82 94 85 92 85 94 96 82 71 73 74 78 81 63 50 41 25 19 30 38 34 37 49 53 52 64 71 74 72 64 60 57 51 45 50
77 82 74 76 82 86 87 98 97 96 79 91 79 79 72 75 90 86 80 88 94 79 61 47 30 37 47 57 48 62 74 73 78 78 92 92 86 84 82 83 80 78 76 70
77 88 91 90 91 89 79 91 46 52 75 81 85 91 82 67 73 100 97 94 92 72 56 37 49 63 68 71 80 86 93 98 96 97 98 98 96 93 96 93 92 96 95 91
93 95 98 94 89 97 97 73 70 49 59 65 74 71 61 59 64 96 100 99 86 58 54 63 66 71 73 81 89 95 99 100 97 96 96 96 95 97 92 89 89 84 85 91
96 92 98 96 94 96 77 74 78 60 44 40 39 39 40 48 62 87 97 89 65 61 74 74 80 81 83 91 95 99 97 98 98 97 97 98 98 95 77 70 65 60 56 67
97 94 95 94 99 88 80 72 58 49 48 47 50 49 47 52 65 82 85 63 62 73 72 75 84 90 95 95 96 97 98 96 97 96 96 92 71 55 44 37 32 28 25 22
99 99 97 96 95 94 70 59 64 59 56 48 46 46 54 60 67 62 60 70 72 74 77 81 82 89 92 94 96 95 96 96 93 71 50 36 25 14 10 9 9 9 9 9
98 100 96 91 87 61 56 63 70 64 48 47 46 46 41 47 63 73 78 77 81 79 82 82 88 89 90 96 97 87 72 63 40 18 11 10 9 10 11 11 12 12 12 12
79 91 95 94 91 76 52 59 65 62 64 54 49 50 54 62 71 79 86 89 86 86 87 90 94 94 96 88 76 66 44 18 11 10 10 11 13 14 14 14 15 15 14 14
78 75 73 66 69 56 63 47 59 67 64 52 55 64 71 76 79 86 95 92 91 89 92 95 95 82 74 64 40 17 12 10 11 14 15 17 17 18 18 18 17 16 15 14
69 70 77 59 54 49 47 54 66 64 55 58 67 70 72 74 81 90 94 96 94 94 95 86 74 67 47 20 14 11 13 15 17 18 19 20 20 19 18 17 16 14 13 12
73 69 62 64 58 56 51 61 66 56 56 65 67 72 76 75 82 91 93 94 95 89 79 74 59 28 16 13 13 16 18 20 21 21 20 19 18 17 16 15 14 12 10 8
76 71 66 62 55 65 68 68 55 54 66 69 74 72 76 85 88 88 93 89 83 77 71 50 20 15 14 15 17 19 20 20 19 18 18 18 18 17 15 13 10 9 8 6

GFSCGP_700_rhum_120.txt.gz
RH
9 16 11 6 10 26 43 47 48 31 30 50 32 43 54 37 33 34 26 20 20 20 19 17 17 14 13 21 30 46 54 70 56 43 37 35 34 35 36 34 37 35 22 24
12 14 12 15 19 40 51 68 54 45 49 58 47 55 54 50 46 46 36 32 30 26 28 29 29 32 39 46 56 67 79 75 62 54 48 44 44 37 35 37 36 21 16 18
18 21 16 25 27 25 42 60 48 62 66 65 70 58 55 51 56 48 40 46 52 52 47 44 52 76 82 77 79 97 99 90 81 72 63 49 43 37 37 38 38 12 12 13
40 33 28 38 35 36 54 42 64 70 76 79 78 80 64 58 59 52 42 35 50 64 64 59 83 98 98 100 100 100 98 99 88 72 56 47 41 40 38 39 32 12 12 13
31 31 36 46 38 54 60 64 73 77 82 83 84 79 57 57 57 72 69 72 82 88 89 89 92 100 97 100 99 99 100 92 78 69 62 52 33 41 41 42 32 14 11 9
46 54 55 57 60 70 78 80 80 86 90 93 75 74 57 62 83 98 100 98 91 96 100 100 99 99 99 99 99 100 99 99 100 96 54 36 36 46 48 48 42 13 12 10
45 44 44 52 60 62 71 87 88 95 98 90 78 80 68 84 98 81 78 98 100 100 99 99 99 99 98 98 100 98 99 98 94 92 62 51 37 41 30 23 16 8 8 13
50 55 39 42 48 59 77 87 82 94 92 78 78 81 85 88 99 78 87 91 86 80 80 86 91 93 93 95 96 98 96 96 94 87 69 49 34 27 18 12 12 11 10 12
53 63 58 59 61 71 97 94 83 98 97 95 72 82 75 87 91 88 91 88 93 94 90 90 93 94 95 90 90 96 90 80 55 40 16 19 23 16 12 12 13 10 7 6
54 64 64 65 67 78 86 83 94 98 94 90 72 76 78 69 75 83 86 84 80 88 72 77 73 48 37 62 49 35 76 70 54 33 12 9 8 7 5 4 4 4 4 4
59 69 72 77 76 73 86 97 93 86 90 90 92 76 57 64 71 75 78 71 66 53 52 51 45 41 36 28 24 33 12 23 43 77 52 13 7 6 6 6 8 10 10 13
56 76 78 79 80 78 86 88 95 95 90 95 95 71 60 75 70 67 62 66 59 54 50 54 52 42 37 28 18 14 12 15 20 24 21 16 16 17 17 24 31 34 34 26
68 95 90 93 92 96 87 66 81 91 92 93 91 71 62 76 68 63 51 63 63 61 62 66 59 50 35 23 33 39 33 30 28 34 31 33 46 53 56 64 65 62 57 52
70 71 69 71 62 66 70 68 67 87 98 91 87 70 88 76 76 63 60 60 68 74 75 74 59 49 32 40 49 43 39 44 51 61 68 76 86 86 81 83 82 80 77 74
72 77 74 69 74 74 79 80 75 95 90 99 94 78 68 75 75 69 67 60 74 82 87 76 61 41 51 60 60 61 70 87 95 98 98 93 94 94 94 97 97 94 93 87
89 81 80 78 76 84 86 73 84 82 93 98 98 92 77 79 82 88 74 76 86 87 86 68 56 46 61 66 72 78 87 92 94 97 98 96 96 96 96 95 81 78 75 77
89 100 95 94 78 82 98 52 64 73 68 51 72 80 84 83 78 81 85 93 98 92 81 68 52 63 66 70 76 87 93 95 92 93 94 96 97 97 95 74 66 60 54 52
93 96 98 92 90 95 68 67 62 73 75 70 62 74 79 75 68 71 82 91 100 94 78 57 64 68 73 82 87 91 91 96 99 98 97 95 94 70 44 32 23 19 16 17
95 95 97 94 98 77 63 62 60 70 62 70 80 57 48 48 50 67 73 90 96 84 62 70 73 78 85 89 91 94 94 96 96 96 92 74 28 14 11 10 10 10 11 11
99 99 98 97 94 97 58 54 62 69 75 64 54 52 55 54 58 61 85 92 76 70 74 78 84 92 95 94 94 95 95 80 60 41 15 10 10 11 13 13 13 13 13 13
97 99 98 99 92 76 62 57 64 81 61 50 52 49 51 51 74 96 85 68 80 79 79 83 92 97 97 96 92 75 79 61 16 10 10 13 15 16 16 16 16 15 15 14
84 95 97 98 97 89 59 58 66 58 56 48 51 47 44 51 58 70 82 86 88 85 88 94 97 96 96 94 89 39 18 11 11 14 16 18 18 18 18 17 16 15 14 12
90 73 78 76 68 59 54 55 50 55 64 60 54 49 55 63 72 82 86 93 93 94 96 97 96 90 75 57 20 12 10 14 17 19 20 20 20 18 17 16 14 13 12 11
72 79 80 73 70 67 62 62 55 59 68 65 51 58 68 74 78 81 93 96 96 96 96 96 81 68 40 17 11 13 16 19 21 21 20 19 18 17 15 14 14 14 13 12
67 67 68 72 69 64 57 56 56 51 68 59 55 63 67 72 79 87 92 94 97 97 93 77 66 29 15 12 15 18 21 21 20 20 19 19 18 18 17 16 15 14 12 12
80 73 74 69 61 61 61 70 61 66 66 56 64 66 66 73 83 87 90 95 96 87 76 65 25 14 13 16 18 20 18 18 18 19 20 21 22 22 19 16 14 13 11 9

GFSCGP_700_rhum_123.txt.gz
RH
10 12 10 11 14 18 21 22 30 21 25 35 28 48 35 39 23 25 23 24 21 18 18 17 17 18 18 16 14 10 14 40 62 59 52 51 48 43 42 42 41 38 35 36
12 14 14 14 19 22 24 33 23 28 31 50 56 47 49 42 37 32 32 30 27 26 24 25 27 25 25 28 28 27 38 68 90 97 74 66 63 72 56 52 46 39 35 36
13 17 15 18 22 21 33 29 26 48 52 55 62 66 62 59 54 45 40 36 35 33 34 34 37 41 40 54 49 59 87 100 100 100 99 97 87 63 60 50 42 38 37 38
25 19 24 25 26 33 42 30 45 60 71 72 75 64 62 69 64 52 47 44 37 36 37 45 62 74 87 79 100 98 96 99 99 100 100 94 72 68 49 42 39 34 37 41
27 26 29 33 30 39 54 52 60 74 79 84 87 84 96 73 64 55 46 37 37 41 50 61 87 93 96 90 96 90 99 87 98 100 100 95 81 75 40 34 31 31 48 48
30 34 36 39 45 51 61 73 78 77 84 81 74 75 81 70 56 54 51 47 44 51 64 79 91 96 99 100 97 99 99 95 92 98 100 98 90 89 52 48 52 57 55 26
36 32 36 44 54 64 72 81 70 82 90 68 71 80 63 48 57 61 55 49 58 68 73 75 76 79 76 72 80 87 91 98 99 100 99 92 95 97 89 70 71 29 23 13
40 48 31 34 34 56 76 77 67 74 74 59 73 74 65 52 54 61 60 62 70 71 77 78 82 81 66 82 71 78 90 98 98 94 98 98 96 90 67 60 40 21 14 12
42 53 43 42 52 61 82 85 74 87 96 95 67 62 57 55 53 61 63 74 67 83 86 85 76 50 37 40 53 37 50 92 87 90 68 41 21 15 14 36 9 8 8 6
46 57 56 55 61 68 75 76 94 97 85 80 60 69 67 45 41 50 66 76 68 79 63 51 42 40 40 35 30 20 21 26 62 75 71 61 59 41 15 8 9 10 8 6
58 60 64 70 70 59 82 98 90 86 93 68 56 54 46 45 46 57 63 66 70 71 51 47 48 49 42 38 30 19 18 18 24 19 20 28 42 21 16 14 15 15 18 21
55 82 79 74 70 74 73 72 79 94 93 94 96 64 56 56 51 61 60 60 68 59 56 54 56 53 46 42 25 28 32 36 30 31 33 32 30 29 32 36 45 48 54 59
72 74 84 80 92 93 88 84 79 90 98 92 92 61 62 60 60 61 59 59 58 60 62 60 54 57 54 46 30 42 49 43 49 56 63 77 79 74 73 78 84 83 84 82
62 75 81 76 91 82 79 69 65 73 92 88 80 71 73 75 66 77 62 63 60 63 68 72 72 65 57 42 44 53 59 69 84 89 96 100 100 99 94 95 98 97 89 85
63 74 79 71 72 74 74 72 71 74 70 88 52 74 86 81 79 94 91 72 64 64 75 78 81 70 60 41 56 60 67 77 91 98 99 100 99 100 97 99 96 87 81 80
81 86 88 82 78 78 72 67 76 77 71 79 78 78 81 97 95 82 85 78 91 78 84 86 81 75 53 51 65 72 82 91 94 96 99 98 98 100 95 92 70 63 58 56
94 98 100 93 86 94 98 71 68 58 45 51 80 45 68 71 76 84 87 92 91 88 79 92 86 73 52 66 75 81 89 93 93 97 98 97 98 96 90 43 23 14 12 11
88 99 97 93 93 94 61 51 43 50 46 60 60 70 71 66 88 93 96 94 100 95 75 91 86 56 66 75 85 92 92 93 94 98 98 93 89 31 12 10 11 12 12 12
64 82 100 95 94 77 65 58 54 57 48 48 52 67 76 69 78 78 85 64 91 82 76 90 63 68 76 85 88 91 90 92 96 88 86 19 11 11 13 14 15 14 14 13
55 62 99 97 93 79 46 49 50 49 55 41 50 63 66 74 62 49 59 71 90 80 91 69 71 76 82 88 90 92 86 60 39 15 10 12 15 16 17 17 16 15 14 13
99 99 98 96 94 70 61 60 57 69 47 45 49 63 63 55 59 64 64 77 88 92 71 75 78 84 89 91 92 80 90 39 11 11 15 18 19 19 18 16 15 13 12 11
85 74 86 98 98 87 59 58 60 50 50 54 54 43 57 58 61 64 73 88 87 80 83 82 88 92 92 90 82 52 12 10 14 18 20 20 19 17 16 14 13 12 11 10
87 71 68 74 66 64 55 49 51 52 54 54 56 53 50 49 52 59 73 81 88 89 89 91 93 94 91 74 27 11 12 16 20 21 20 19 18 17 16 15 13 12 12 11
85 82 79 72 67 70 68 64 59 55 57 55 63 66 52 58 69 80 88 90 91 94 93 94 94 90 63 22 11 15 19 22 20 20 20 20 20 21 19 17 15 14 14 13
90 76 78 81 74 72 68 64 66 66 66 59 67 56 60 69 75 79 83 89 92 93 95 95 84 60 20 12 14 20 22 20 19 20 21 23 24 25 23 20 17 16 15 13
76 66 65 64 64 68 73 68 68 66 60 60 70 58 66 70 74 78 86 93 95 96 96 91 64 20 12 15 20 22 19 18 19 21 24 27 29 29 26 22 17 14 13 12

GFSCGP_700_rhum_126.txt.gz
RH
9 17 13 28 37 37 28 32 29 30 44 50 42 43 45 51 18 15 16 19 16 18 18 17 17 18 19 18 19 20 22 24 23 26 43 48 60 60 59 54 50 53 56 48
12 24 33 21 14 16 39 43 38 39 49 45 44 46 63 26 18 23 26 22 24 25 24 24 23 21 21 24 29 30 28 28 43 66 99 83 86 98 88 71 72 69 56 50
28 39 17 15 14 19 51 48 40 47 56 55 62 37 76 50 33 26 24 26 28 33 31 26 22 21 22 27 28 38 38 47 69 97 99 100 98 93 100 100 97 79 60 50
43 43 20 17 35 48 37 52 55 60 57 38 67 29 51 77 52 32 32 37 38 30 28 27 28 27 32 47 56 65 70 98 88 90 92 90 85 94 94 98 82 58 49 41
42 23 24 55 50 40 42 42 66 68 63 61 47 56 34 71 77 40 46 44 38 33 34 35 41 48 53 58 66 73 88 86 77 96 88 97 98 89 96 77 78 47 33 46
44 36 35 54 34 40 54 52 71 73 62 48 36 46 25 63 57 47 44 44 42 41 44 42 45 52 60 63 68 71 72 78 86 84 98 98 96 98 90 86 75 74 51 45
56 48 41 36 53 48 67 63 46 41 51 34 60 52 36 63 43 42 45 49 46 48 44 40 48 59 59 53 52 53 47 57 76 79 89 99 100 99 99 97 97 100 95 70
55 53 50 27 44 51 70 60 40 39 30 30 62 51 51 47 42 43 47 53 50 48 46 41 51 53 43 37 33 32 38 32 44 86 84 78 76 89 90 86 90 93 96 93
43 36 33 26 33 59 76 76 55 49 50 66 40 37 51 55 48 42 44 48 57 51 52 43 40 37 36 36 34 31 23 18 21 34 81 86 70 61 63 34 20 22 83 88
45 37 45 40 45 68 78 70 84 73 61 55 31 32 39 53 44 41 41 49 59 56 56 47 43 40 39 37 35 32 18 17 18 23 23 25 44 55 52 46 31 32 28 25
56 50 65 56 78 59 87 81 79 68 61 50 42 34 51 47 44 44 44 51 61 65 64 51 48 48 48 44 35 30 20 26 33 32 28 29 28 25 39 43 41 33 41 44
58 68 50 62 58 64 57 56 62 70 62 74 74 55 57 49 46 45 52 50 59 60 66 56 57 58 57 53 42 37 24 36 42 42 37 40 47 54 75 86 82 84 82 76
64 83 67 54 77 84 74 62 61 69 73 81 82 55 53 55 56 54 56 57 59 63 67 64 61 64 66 60 49 37 35 45 52 58 68 78 91 98 100 100 100 100 97 85
70 76 75 54 57 92 96 93 90 88 98 74 63 54 48 60 65 65 66 65 75 75 68 69 67 70 73 69 56 37 46 53 60 72 82 91 96 100 97 97 98 97 96 90
92 74 65 65 63 65 84 81 74 78 83 86 66 58 47 52 67 71 75 76 95 92 83 76 79 79 82 75 58 44 56 64 74 85 86 87 94 96 97 97 96 80 63 56
61 73 67 61 60 61 57 58 55 57 57 59 62 61 61 65 92 54 64 93 92 92 92 91 84 86 84 76 52 54 64 76 87 88 88 90 94 95 95 92 43 16 12 11
94 94 87 72 60 67 79 64 60 56 59 62 62 52 52 62 59 57 61 86 96 96 97 95 89 90 84 74 53 65 76 87 88 89 92 94 94 92 74 26 11 12 12 12
100 99 95 78 81 90 51 50 52 58 62 62 66 64 68 82 85 81 67 81 95 98 100 98 90 84 80 62 65 77 88 92 90 93 97 90 84 28 12 14 14 15 14 13
100 94 97 88 61 53 52 58 55 50 39 54 48 49 87 45 48 75 74 83 98 99 100 100 88 79 73 67 77 86 90 90 94 82 52 12 11 16 16 17 16 14 13 12
89 93 90 75 70 64 51 53 60 60 58 54 34 40 40 50 69 66 72 84 92 79 90 100 79 79 69 77 86 88 88 77 45 18 10 13 17 18 17 15 14 13 12 12
76 99 100 97 87 63 62 69 52 72 45 47 41 44 47 67 71 72 74 72 80 91 100 94 85 70 76 85 88 88 81 33 11 10 16 19 18 16 15 14 13 13 13 11
73 83 98 99 95 90 51 75 72 62 55 48 47 53 53 51 66 66 67 70 75 88 95 90 74 78 84 89 87 84 68 17 12 18 20 18 17 16 16 15 14 13 12 11
89 68 73 88 73 71 62 54 55 56 53 48 51 52 52 48 54 64 67 69 80 98 92 78 83 84 91 90 83 50 11 15 19 21 19 18 19 20 19 17 16 14 12 11
88 92 81 85 69 68 69 66 62 56 57 53 53 55 59 58 50 53 60 70 80 83 85 88 87 93 93 94 56 14 15 20 21 20 19 21 23 24 23 21 17 15 14 13
85 86 92 82 86 77 67 67 70 67 66 62 60 63 68 54 58 69 76 83 89 93 93 92 95 97 94 60 14 16 20 21 20 19 22 25 28 29 28 25 21 18 16 15
96 76 99 94 94 69 70 69 73 70 66 66 68 66 72 59 67 73 79 87 94 96 96 98 98 95 61 16 13 20 21 20 19 21 24 29 32 32 31 28 23 19 16 14

GFSCGP_700_rhum_129.txt.gz
RH
11 36 34 28 30 28 25 25 18 17 19 31 38 32 27 29 43 60 70 30 14 18 16 16 16 16 15 14 13 12 12 13 15 19 20 20 29 41 82 75 53 51 54 57
46 40 28 26 31 36 36 28 24 24 27 40 36 30 27 37 56 37 51 19 22 23 24 23 21 20 18 17 17 16 17 19 23 28 29 33 37 57 73 99 99 84 82 79
39 28 32 30 44 38 31 29 27 28 29 36 34 33 31 52 36 25 21 25 26 28 28 25 23 22 22 21 20 20 21 29 34 51 60 61 78 67 87 86 79 98 99 95
37 32 36 32 38 34 30 27 40 39 33 28 41 31 28 50 74 29 27 28 30 27 26 28 26 26 27 25 25 29 32 45 52 55 60 70 84 88 84 77 78 96 93 98
30 38 38 37 31 32 34 43 44 39 40 35 31 31 26 28 60 68 66 24 27 31 32 30 31 34 37 36 38 38 39 40 43 45 55 65 81 91 89 93 94 94 88 61
38 46 50 40 41 45 50 53 48 47 41 39 33 29 23 23 45 49 66 32 38 37 35 38 38 33 32 35 41 44 44 43 41 42 50 61 72 85 98 92 86 91 88 88
58 50 49 50 56 55 56 46 40 41 43 43 34 32 25 38 47 45 63 38 40 37 43 41 34 30 27 26 26 28 29 28 28 33 39 47 68 69 71 85 89 93 98 98
46 38 48 56 42 48 51 43 34 32 28 20 37 37 37 45 57 37 38 40 35 41 47 42 35 34 31 26 24 23 21 19 15 11 12 31 31 74 72 64 57 55 50 44
39 36 44 51 49 41 40 52 40 37 35 38 34 27 56 44 43 38 31 34 34 42 50 47 40 38 35 30 29 27 24 20 12 13 15 14 22 23 24 58 57 82 64 24
37 35 43 56 54 50 41 50 53 50 48 44 28 27 27 50 43 39 35 34 37 44 54 52 47 42 41 38 35 33 28 22 15 18 25 27 25 25 27 24 23 34 54 50
47 36 47 64 57 36 48 57 53 48 45 41 36 30 60 58 46 43 38 32 35 45 56 59 57 47 48 45 42 43 37 28 19 28 36 40 38 34 37 42 44 51 54 72
50 46 34 50 49 47 39 49 51 57 52 47 46 47 50 62 69 79 44 43 40 47 55 63 64 56 53 54 54 56 48 31 26 39 42 48 54 57 70 86 90 93 95 89
59 70 53 39 37 57 63 45 61 59 54 56 58 58 58 54 58 66 77 83 47 46 58 63 68 66 59 63 65 66 59 35 36 47 49 58 69 76 89 95 98 99 100 93
68 67 47 41 39 75 90 66 57 46 66 74 69 57 48 76 76 73 88 79 56 44 65 74 71 66 68 69 74 74 64 36 48 55 63 71 78 82 87 94 96 96 94 93
60 68 53 55 52 76 83 94 85 78 79 98 77 69 68 61 64 65 93 86 62 47 72 82 81 78 79 79 82 76 61 42 56 64 75 76 79 82 90 95 95 85 29 16
73 91 84 78 78 53 48 50 45 47 57 64 68 65 61 50 51 49 89 71 47 70 81 89 91 92 87 88 90 77 54 55 66 78 81 79 82 89 93 90 60 24 12 12
86 80 82 82 57 55 52 41 44 42 37 38 40 40 38 38 42 62 86 84 57 68 88 96 98 97 95 91 82 76 56 67 80 86 82 82 87 85 65 48 14 14 14 13
97 97 97 94 77 91 62 51 44 45 42 42 43 42 39 41 50 64 86 84 60 66 79 93 98 98 94 80 77 62 64 76 86 84 84 84 79 42 16 22 16 15 13 12
92 88 94 92 63 52 42 38 52 50 52 55 52 46 44 48 59 74 63 57 60 68 81 95 98 96 97 85 79 63 72 83 85 83 60 17 11 19 20 17 15 12 12 11
71 75 82 79 76 68 49 44 45 59 74 62 60 54 57 61 66 87 55 56 64 73 83 99 97 97 96 86 65 71 80 83 85 53 14 11 16 18 17 14 13 12 12 11
85 84 83 82 79 60 50 47 59 72 50 58 58 58 67 47 52 58 82 71 72 83 98 97 96 98 95 73 72 82 84 82 46 11 12 17 19 16 15 14 14 13 12 12
87 77 69 76 78 77 54 65 76 64 66 62 61 55 45 42 48 50 69 74 70 85 93 96 99 99 88 75 83 87 85 67 22 13 18 19 17 17 17 16 15 14 13 13
58 55 64 70 70 77 80 81 67 55 63 65 61 52 46 47 46 44 61 70 68 75 98 100 100 97 78 83 89 88 87 47 12 18 20 18 19 20 21 20 18 16 14 13
58 72 75 83 67 79 78 70 64 63 64 51 53 56 51 51 51 48 51 56 64 76 91 100 99 84 86 91 92 84 39 16 19 20 19 20 23 25 25 24 22 19 16 14
90 86 83 87 84 90 79 74 68 73 66 63 65 63 55 58 59 59 54 59 74 91 100 99 90 91 95 97 96 57 14 18 21 19 20 23 27 30 30 29 26 20 18 16
79 80 90 77 92 96 97 89 84 76 73 71 66 66 68 64 67 60 67 76 86 91 94 96 97 97 97 96 77 14 19 22 20 19 22 26 30 32 33 31 27 23 19 19

GFSCGP_700_rhum_132.txt.gz
RH
10 23 36 30 34 30 19 21 21 18 18 24 27 26 29 30 23 29 44 64 63 33 15 14 15 14 14 13 13 13 12 13 13 12 12 12 12 14 14 14 20 76 77 64
37 41 23 31 29 28 27 27 26 23 18 18 24 28 30 28 24 33 53 66 53 32 25 18 19 15 15 15 14 14 15 14 14 15 16 17 20 18 25 24 32 51 74 100
33 33 30 29 27 29 30 31 27 22 21 26 29 32 30 28 29 41 40 52 26 30 31 24 19 19 19 18 17 15 16 18 22 26 31 36 34 36 38 32 42 65 74 84
32 30 33 32 30 27 33 28 25 24 29 28 24 28 25 32 33 41 32 31 25 24 26 25 26 23 21 21 22 21 22 24 27 32 37 40 37 45 48 52 61 67 78 82
30 28 31 34 30 27 30 28 33 31 36 33 28 27 25 24 46 55 43 28 22 22 24 23 25 25 26 27 29 27 25 27 30 35 36 36 40 47 51 63 78 75 72 78
34 27 29 33 32 30 28 38 42 40 36 40 33 30 26 24 28 63 59 42 24 24 27 30 29 30 32 30 26 22 20 19 18 16 15 15 20 33 44 57 60 64 73 82
36 33 36 42 38 35 37 50 43 43 42 43 31 29 29 31 39 48 60 66 36 26 30 32 35 37 33 29 27 26 24 23 20 16 12 8 7 7 17 32 36 54 62 65
41 36 40 45 43 41 46 48 35 39 41 31 25 32 31 31 41 47 53 48 32 25 25 30 39 40 35 35 33 30 28 25 22 18 13 9 8 9 8 11 26 23 22 43
33 34 34 42 44 42 42 44 39 36 36 42 35 29 46 44 41 43 39 35 25 24 24 32 40 42 42 39 37 35 31 29 27 22 16 11 11 17 22 21 18 20 24 19
35 39 35 36 44 45 38 43 48 44 52 51 32 28 26 42 52 45 38 30 31 22 20 34 38 41 46 42 41 42 36 36 35 29 16 13 17 24 29 32 30 29 30 36
42 49 39 43 52 46 44 41 45 49 47 42 42 35 50 56 55 48 40 40 38 28 28 32 41 45 49 47 45 48 44 42 42 36 18 19 27 30 40 47 50 66 77 82
47 51 43 41 49 44 36 37 40 54 52 48 51 53 49 58 65 70 54 58 41 44 35 30 46 48 50 53 51 52 56 54 51 41 22 29 35 37 54 68 78 89 98 100
54 56 52 38 45 48 44 39 40 48 52 57 61 53 44 49 58 68 76 79 75 54 45 31 31 42 53 59 62 61 63 64 56 39 28 40 46 51 65 76 84 91 96 98
60 57 54 49 37 37 46 55 60 51 68 72 60 64 57 54 72 82 80 94 94 79 64 61 45 41 59 69 70 76 73 71 58 34 40 49 57 66 73 78 86 93 95 93
75 72 61 54 46 45 63 69 68 88 94 99 79 72 66 68 67 81 65 89 76 86 74 69 52 56 70 79 87 87 81 74 58 36 47 58 70 75 78 84 91 86 65 25
85 72 68 71 56 69 74 64 89 86 91 78 82 73 69 62 60 58 52 84 77 82 84 64 61 66 76 93 98 94 85 71 49 46 57 70 75 79 85 88 82 49 44 20
87 87 80 75 65 74 77 74 84 68 53 45 43 44 41 39 40 39 54 64 69 83 72 60 61 65 86 100 98 97 87 66 48 55 69 75 79 84 63 65 24 16 15 14
87 88 84 83 79 90 67 55 61 54 46 42 41 41 38 40 42 46 58 70 71 69 63 61 54 60 92 100 97 96 78 60 56 67 75 79 71 68 34 24 22 16 13 11
58 92 92 96 97 82 66 48 44 44 46 55 53 51 53 52 46 70 56 66 68 60 62 56 57 76 100 98 97 95 73 55 67 74 77 50 13 12 20 17 16 13 12 11
61 84 93 97 95 90 51 46 49 48 78 50 57 53 48 41 51 58 57 60 57 59 70 66 74 91 100 96 96 92 60 66 75 80 60 21 12 17 18 15 13 12 12 11
86 82 88 89 82 74 43 55 47 54 61 65 56 50 56 59 59 62 56 54 51 52 69 84 93 96 97 96 94 80 68 75 79 72 24 12 18 18 16 23 14 14 13 13
88 95 85 80 83 83 62 64 60 57 57 66 56 59 58 56 56 45 42 47 54 76 72 78 86 97 96 96 93 72 77 82 76 23 13 17 19 17 17 18 17 16 15 14
61 62 72 86 88 74 74 75 76 65 71 58 52 64 69 59 48 45 46 47 52 68 67 77 95 96 96 94 80 78 84 83 65 18 16 20 18 19 21 22 22 20 18 16
58 57 57 57 57 67 55 67 77 60 65 61 61 60 53 55 56 50 48 48 50 63 70 84 98 98 96 94 79 86 88 85 31 15 20 19 19 23 26 27 27 25 21 18
94 95 87 76 74 84 84 83 90 80 69 68 70 66 59 63 62 54 56 56 53 54 58 88 100 99 98 87 87 94 88 41 17 20 20 19 23 27 30 31 30 27 23 20
57 88 89 70 76 90 76 84 89 99 83 74 70 69 68 67 65 63 61 60 56 60 72 98 100 98 96 92 95 96 72 13 19 21 19 21 24 29 33 34 33 30 26 22